Regional Weather Roundup
Issued by NWS

Home | Current Version | Previous Version | Graphics & Text | Print | Product List | Glossary On
Versions: 1 2 3 4 5 6 7 8 9 10 11 12 13 14 15 16 17 18 19 20 21 22 23 24 25 26 27 28 29 30 31 32 33 34 35 36 37 38 39 40 41 42 43 44 45 46 47 48 49 50
667
ASUS43 KDMX 271001
RWRIA

WEATHER ROUNDUP FOR IOWA
NATIONAL WEATHER SERVICE DES MOINES IA
500 AM CDT TUE JUN 27 2017

NOTE: "FAIR" INDICATES FEW OR NO CLOUDS BELOW 12,000 FEET WITH NO
SIGNIFICANT WEATHER AND/OR OBSTRUCTIONS TO VISIBILITY.

* - THESE STATIONS ARE NOT NWS STATIONS...THUS NOT UNDER NWS
QUALITY CONTROL.  THEY ALSO DO NOT REPORT WEATHER SUCH
AS PRECIPITATION OR FOG.

IAZ001>003-012>014-020>022-031>034-043>046-271100-
   NORTHWEST IOWA

CITY           SKY/WX    TMP DP  RH WIND       PRES   REMARKS
CARROLL *      CLEAR     45  43  93 CALM      30.14S
CHEROKEE *     CLEAR     42  42  98 CALM      30.13F
DENISON *      PTCLDY    48  45  87 CALM      30.15S
LE MARS *      CLEAR     43  41  93 CALM      30.13S
ORANGE CITY *  CLEAR     54  41  62 S3        30.12S
SHELDON *      CLEAR     48  43  81 SE7       30.11S
SIOUX CITY     CLEAR     47  44  90 E7        30.12S
SPENCER        CLEAR     46  42  86 CALM      30.13S
STORM LAKE *   CLEAR     50  41  71 S7        30.14S
$$

IAZ055>058-069>071-079>083-090>094-271100-
   SOUTHWEST IOWA

CITY           SKY/WX    TMP DP  RH WIND       PRES   REMARKS
ATLANTIC *     CLEAR     46  45  93 N5        30.14F
AUDUBON *      CLEAR     45  43  93 CALM      30.15F
CLARINDA *     CLEAR     50  50 100 CALM      30.15F FOG
COUNCIL BLFS * CLEAR     54  50  87 SE5       30.12F
CRESTON *      CLEAR     52  45  76 E5        30.16S
HARLAN  *      CLEAR     45  45 100 CALM      30.17S
LAMONI         CLEAR     53  48  83 NE3       30.14F
RED OAK *      CLEAR     50  48  93 CALM      30.13F
SHENANDOAH *   CLEAR     52  50  93 VRB3      30.13S
$$

IAZ047>049-059>061-072>074-084-271100-
   CENTRAL IOWA

CITY           SKY/WX    TMP DP  RH WIND       PRES   REMARKS
AMES           CLEAR     46  46 100 CALM      30.15S
ANKENY *       CLEAR     46  45  93 CALM      30.16S
BOONE *        CLEAR     54  43  66 S3        30.14S
CHARITON *     CLEAR     52  46  82 SE5       30.14F
DES MOINES     CLEAR     56  46  69 SE3       30.15S
GRINNELL*      CLEAR     49  45  83 CALM      30.16F
KNOXVILLE *    CLEAR     54  45  71 S7        30.14S
MARSHALLTOWN   CLEAR     47  45  93 CALM      30.14S
NEWTON *       CLEAR     52  45  76 CALM      30.15S
PELLA *        CLEAR     47  45  93 CALM      30.16S
PERRY *          N/A     46  44  95 CALM      30.15S
$$

IAZ004>006-015-016-023>025-035-036-271100-
   NORTH CENTRAL IOWA

CITY           SKY/WX    TMP DP  RH WIND       PRES   REMARKS
ALGONA *       CLEAR     48  45  87 S7        30.14S
CLARION *        N/A     46  45  93 S5        30.15R
ESTHERVILLE    CLEAR     47  44  90 S6        30.12F
FORT DODGE *   CLEAR     46  43  87 CALM      30.15S
MASON CITY     CLEAR     47  41  80 CALM      30.15S
FOREST CITY *  HAZE      43  30  61 CALM      30.14S VSB 1/2
WEBSTER CITY * CLEAR     45  43  93 S6        30.13S
IOWA FALLS *     N/A     47  43  85 CALM      30.16S
$$

IAZ007>011-017>019-026>030-037>042-050>054-066-271100-
   NORTHEAST IOWA

CITY           SKY/WX    TMP DP  RH WIND       PRES   REMARKS
CEDAR RAPIDS   CLEAR     48  45  89 NW6       30.14R
CHARLES CITY * CLEAR     48  48 100 CALM      30.14S
CLINTON *      CLEAR     47  46  97 W5        30.14R
DECORAH *      CLEAR     48  45  87 CALM      30.12S
DUBUQUE        CLEAR     47  44  90 SW5       30.13S
MONTICELLO *   CLEAR     46  45  93 CALM      30.14S
WATERLOO       CLEAR     47  44  90 CALM      30.13F
$$

IAZ064-065-067-068-078-271100-
   EAST CENTRAL IOWA

CITY           SKY/WX    TMP DP  RH WIND       PRES   REMARKS
DAVENPORT      CLEAR     46  44  93 W3        30.14R
IOWA CITY      CLEAR     49  45  86 SW3       30.16R
MT. PLEASANT * CLEAR     46  45  97 CALM      30.15S
MUSCATINE *    CLEAR     48  46  93 CALM      30.15S
QUAD CITIES    CLEAR     47  43  86 CALM      30.14R
$$

IAZ062-063-075>077-085>089-095>099-271100-
   SOUTHEAST IOWA

CITY           SKY/WX    TMP DP  RH WIND       PRES   REMARKS
BURLINGTON     CLEAR     48  47  96 CALM      30.14S
FAIRFIELD *    CLEAR     46  45  93 CALM      30.15R
FORT MADISON * CLEAR     52  50  93 CALM      30.16R
KEOKUK *       CLEAR     48  48 100 CALM      30.14S
OSKALOOSA *      N/A     50  44  79 CALM      30.15S
OTTUMWA        CLEAR     45  44  97 CALM      30.15S
WASHINGTON *   CLEAR     46  46 100 NW5       30.16S
$$

ABBREVIATIONS USED IN REMARKS
   TC - TEMPERATURES IN CELSIUS
  WCI - WIND CHILL INDEX
   HX - HEAT INDEX
  VSB - VISIBILITY
$$





USA.gov is the U.S. government's official web portal to all federal, state and local government web resources and services.